Location: Dompnac
(44.5644°N, 4.1026°E)
Time: 04:21:48
(UTC+00:00)

Cosmos 2082 Rocket - Pass Details

Date: 24 June 2021
Orbit: 832 x 855 km, 71.0° (Epoch: 03 August)

Event Time Altitude Azimuth Distance (km) Brightness Sun altitude
Exits shadow 02:06:36 - 160° (SSE) 2,819 4.6 -14.8°
Reaches altitude 10° 02:07:50 10° 154° (SSE) 2,433 4.3 -14.7°
Maximum altitude 02:12:12 24° 102° (ESE) 1,661 4.0 -14.3°
Drops below altitude 10° 02:16:35 10° 50° (NE) 2,450 5.9 -13.8°
Sets 02:19:27 0° 37° (NE) 3,391 7.4 -13.5°
